Date,TemperatureHighF,TemperatureAvgF,TemperatureLowF,DewpointHighF,DewpointAvgF,DewpointLowF,HumidityHigh,HumidityAvg,HumidityLow,PressureMaxIn,PressureMinIn,WindSpeedMaxMPH,WindSpeedAvgMPH,GustSpeedMaxMPH,PrecipitationSumIn
2013-1-1,31.8,23.5,16.0,30.8,19.9,13.1,96,86,76,30.31,30.13,2,0,7,0.01
2013-1-2,33.0,20.9,12.2,20.2,15.4,10.1,92,80,49,30.32,30.23,2,0,4,0.00
2013-1-3,39.0,30.2,22.1,29.0,24.0,18.7,91,78,64,30.43,30.26,3,0,8,0.02
2013-1-4,40.7,31.2,24.4,27.1,23.2,21.1,89,73,51,30.47,30.33,3,0,12,0.01
2013-1-5,44.5,37.9,30.3,32.7,27.8,22.3,74,67,57,30.34,30.12,3,1,9,0.00
2013-1-6,40.9,33.2,23.3,33.6,25.4,19.9,88,74,51,30.41,30.11,3,1,12,0.00
2013-1-7,48.1,33.3,21.5,29.0,23.9,19.0,91,70,44,30.42,30.18,3,0,9,0.00
2013-1-8,55.7,42.5,29.2,36.1,27.5,22.5,84,59,28,30.23,30.10,3,0,7,0.00
2013-1-9,58.8,49.5,41.6,45.0,37.9,30.5,94,66,41,30.47,30.19,2,0,7,0.00
2013-1-10,55.8,46.1,41.2,55.5,41.7,31.0,99,86,57,30.45,29.79,3,1,10,0.17
2013-1-11,63.2,55.0,49.6,53.8,49.5,47.4,99,82,61,29.89,29.76,5,1,12,0.00
2013-1-12,56.9,46.5,31.0,49.9,40.7,29.7,96,82,52,29.96,29.80,5,1,9,0.25
2013-1-13,30.8,24.1,17.4,29.8,21.7,14.5,96,90,85,30.41,29.92,2,0,6,0.00
2013-1-14,27.6,19.9,14.1,19.1,15.2,11.8,92,82,62,30.56,30.40,1,0,5,0.00
2013-1-15,29.2,22.7,15.4,22.4,18.8,13.7,95,85,71,30.47,30.18,3,0,5,0.00
2013-1-16,41.9,30.6,18.9,25.4,21.6,17.0,93,71,46,30.20,30.07,5,1,9,0.01
2013-1-17,44.0,33.9,25.4,31.5,24.6,19.3,89,70,41,30.51,30.16,3,0,8,0.00
2013-1-18,55.9,38.5,23.0,29.9,24.4,19.7,88,61,31,30.53,30.15,6,1,12,0.00
2013-1-19,65.5,51.8,41.0,36.2,32.4,28.0,61,48,32,30.16,29.92,9,2,21,0.00
2013-1-20,45.8,32.7,24.5,31.9,17.7,11.4,77,55,37,30.35,30.14,3,1,8,0.00
2013-1-21,28.6,20.8,14.9,13.6,6.3,-0.7,75,54,32,30.44,30.33,5,1,10,0.00
2013-1-22,20.0,16.1,12.2,11.6,6.0,-0.4,86,65,50,30.53,30.41,1,0,4,0.00
2013-1-23,44.9,28.1,14.1,24.3,17.8,11.1,89,67,43,30.42,30.19,2,0,9,0.00
2013-1-24,27.3,22.2,14.7,17.3,9.6,3.1,75,59,44,30.62,30.27,5,2,10,0.00
2013-1-25,44.2,34.0,26.0,23.7,19.4,13.0,68,55,43,30.29,30.16,5,1,8,0.00
2013-1-26,41.7,33.3,25.3,23.0,18.8,15.4,80,56,37,30.42,30.26,3,1,7,0.00
2013-1-27,52.4,38.0,29.1,51.7,34.7,19.3,98,88,65,30.33,29.97,5,1,12,0.03
2013-1-28,72.8,61.8,53.0,62.7,57.8,52.1,97,87,68,29.99,29.84,3,1,9,0.00
2013-1-29,66.7,61.0,52.5,60.9,57.9,51.9,98,90,77,29.83,29.42,3,1,12,0.62
2013-1-30,52.3,38.6,26.9,51.8,34.7,19.4,98,86,73,29.94,29.36,2,1,9,0.06
2013-1-31,33.5,24.3,11.1,27.2,16.9,2.9,91,73,65,30.43,29.94,5,2,13,0.01
2013-2-1,28.7,18.9,7.2,14.0,7.2,1.7,79,61,44,30.55,30.26,3,0,8,0.00
2013-2-2,44.2,34.2,28.1,29.4,22.8,12.7,93,64,49,30.26,30.08,3,1,9,0.00
2013-2-3,37.9,31.2,27.7,29.9,23.0,17.0,96,73,45,30.23,30.02,5,1,12,0.06
2013-2-4,61.9,40.6,27.8,38.2,29.1,21.0,85,65,39,30.02,29.80,5,1,13,0.00
2013-2-5,58.2,39.5,26.3,37.2,30.4,24.3,94,73,41,30.15,29.92,5,1,12,0.00
2013-2-6,52.5,40.9,28.1,34.4,30.9,26.6,97,70,44,30.25,30.06,5,1,9,0.00
2013-2-7,53.2,43.6,37.7,47.1,38.5,31.7,96,82,63,30.07,29.87,3,1,8,0.07
2013-2-8,38.5,34.7,31.3,36.4,31.2,27.2,94,87,79,30.40,30.07,2,1,8,0.00
2013-2-9,42.3,35.0,29.1,36.6,29.4,26.0,94,80,65,30.39,30.03,5,1,10,0.08
2013-2-10,57.3,47.8,38.3,53.2,41.7,31.6,97,82,43,30.03,29.59,9,2,23,0.21
2013-2-11,51.6,42.5,35.9,31.6,27.9,25.3,72,57,39,30.17,29.81,9,2,19,0.00
2013-2-12,45.6,37.4,27.1,31.5,28.4,24.5,94,71,51,30.19,29.96,2,0,5,0.00
2013-2-13,54.9,43.3,35.1,33.8,31.1,29.0,85,64,38,29.97,29.82,5,1,10,0.00
2013-2-14,58.1,46.0,38.7,37.1,33.2,30.1,77,62,38,30.08,29.83,5,1,10,0.00
2013-2-15,43.7,35.7,27.2,30.5,20.2,12.8,79,55,31,30.29,30.08,3,1,7,0.00
2013-2-16,39.2,28.3,19.3,18.1,13.8,9.8,81,57,31,30.31,30.20,3,0,10,0.00
2013-2-17,48.9,37.0,23.4,33.5,22.6,13.7,72,58,35,30.21,29.92,5,1,10,0.00
2013-2-18,56.2,46.1,32.1,48.1,39.8,25.9,94,79,67,29.93,29.55,5,2,17,0.11
2013-2-19,37.7,29.8,22.9,26.1,17.3,11.4,80,61,36,30.33,29.94,6,1,10,0.00
2013-2-20,27.2,22.7,16.6,15.7,13.1,9.7,77,66,59,30.45,30.33,2,0,6,0.00
2013-2-21,31.0,25.8,21.3,30.0,22.0,14.8,96,86,73,30.36,29.85,7,2,16,0.00
2013-2-22,34.4,30.6,21.2,32.4,26.7,17.7,97,86,67,30.11,29.83,5,1,12,0.05
2013-2-23,39.0,27.2,16.2,23.7,19.9,13.8,94,75,52,30.10,30.02,3,0,8,0.17
2013-2-24,44.2,33.3,19.2,28.6,24.3,17.0,94,71,49,30.15,30.05,3,1,9,0.15
2013-2-25,46.3,37.9,31.4,33.2,30.3,27.1,94,75,54,30.09,29.63,7,2,14,0.15
2013-2-26,38.2,35.1,32.8,37.7,34.3,31.8,98,97,94,29.70,29.36,7,1,13,0.38
2013-2-27,32.8,31.6,30.6,31.7,29.8,28.3,96,93,91,29.93,29.70,2,0,6,0.03
2013-2-28,30.6,30.5,30.4,28.6,28.5,28.2,92,92,91,29.95,29.92,2,0,6,0.00
2013-3-6,30.6,27.2,24.9,23.1,22.2,21.3,86,81,72,30.37,30.35,0,0,1,0.01
2013-3-7,47.5,35.0,21.8,31.4,26.9,20.1,96,74,49,30.44,30.32,2,1,8,0.00
2013-3-8,52.3,41.4,29.7,34.7,31.3,27.4,91,69,47,30.43,30.21,5,2,12,0.00
2013-3-9,68.7,52.2,39.7,44.6,37.4,31.5,95,61,31,30.20,29.79,6,2,12,0.27
2013-3-10,59.0,51.9,44.5,52.8,49.1,43.2,98,91,61,29.79,29.63,3,0,10,0.75
2013-3-11,44.3,34.8,32.1,42.7,31.6,26.9,95,88,77,30.02,29.73,6,2,12,0.00
2013-3-12,52.2,37.4,28.0,31.7,26.9,24.1,89,68,39,30.24,30.00,6,1,14,0.00
2013-3-13,44.0,34.5,27.3,24.6,20.8,18.6,77,59,37,30.45,30.24,3,1,10,0.01
2013-3-14,53.8,38.7,26.5,34.6,26.9,20.5,83,64,42,30.43,30.10,3,1,12,0.00
2013-3-15,72.3,55.6,34.5,47.8,40.7,31.4,91,62,35,30.11,29.66,2,0,5,0.00
2013-3-16,65.9,49.1,38.1,48.0,40.3,36.2,94,74,45,30.05,29.65,5,1,12,0.03
2013-3-17,38.1,35.4,33.4,36.3,33.3,29.4,97,92,85,30.10,29.80,5,2,12,0.66
2013-3-18,50.5,40.8,36.2,40.4,35.5,24.8,98,83,57,30.04,29.71,3,0,9,0.01
2013-3-19,50.4,39.2,29.7,25.0,19.7,13.6,72,48,24,30.25,30.05,3,0,7,0.00
2013-3-20,38.6,32.4,25.3,30.3,19.8,12.2,90,61,38,30.30,30.14,5,1,10,0.00
2013-3-21,39.8,30.0,18.6,20.9,15.4,12.4,79,56,38,30.16,30.01,5,0,7,0.00
2013-3-22,41.7,36.5,31.7,27.5,24.5,20.5,70,62,50,30.07,30.00,3,1,8,0.00
2013-3-23,54.1,44.2,36.8,37.4,28.9,21.7,85,56,38,30.07,29.84,5,1,10,0.02
2013-3-24,41.3,32.9,30.6,37.4,31.6,29.6,97,95,86,29.88,29.59,6,1,10,0.05
2013-3-25,37.5,31.7,28.0,32.7,28.7,25.9,96,89,73,30.23,29.87,3,0,9,0.18
2013-3-26,42.5,34.2,27.4,30.0,25.6,22.0,86,72,50,30.39,30.23,3,0,7,0.13
2013-3-27,47.2,35.3,21.4,30.0,25.2,19.0,94,69,44,30.43,30.32,2,0,5,0.01
2013-3-28,56.9,46.1,36.2,39.6,33.8,28.0,76,63,50,30.37,30.24,3,1,10,0.00
2013-3-29,64.1,52.1,41.1,47.2,42.7,37.7,94,72,49,30.26,30.18,5,1,9,0.00
2013-3-30,53.2,46.7,40.8,47.4,44.0,40.0,98,91,71,30.21,29.93,5,0,10,0.07
2013-3-31,71.1,56.9,47.3,53.1,43.8,34.7,98,68,27,29.94,29.85,5,0,9,0.00
2013-4-1,53.0,44.2,35.7,36.6,26.1,18.4,68,51,27,30.25,29.94,3,1,8,0.00
2013-4-2,50.0,38.9,27.2,24.9,19.6,13.7,82,49,24,30.37,30.25,3,0,7,0.00
2013-4-3,53.3,41.9,29.5,26.7,23.6,19.7,78,51,29,30.42,30.27,5,1,10,0.00
2013-4-4,62.2,47.9,32.7,29.8,25.0,21.6,77,45,22,30.26,30.05,5,0,8,0.00
2013-4-5,68.3,55.4,42.4,39.2,32.8,27.3,64,44,26,30.19,30.03,3,1,8,0.00
2013-4-6,74.9,64.0,52.0,43.4,38.5,34.9,58,41,26,30.03,29.71,5,2,15,0.00
2013-4-7,79.2,66.1,56.3,60.0,50.7,45.1,88,60,33,29.90,29.69,6,1,14,0.11
2013-4-8,79.7,68.8,59.0,62.4,57.8,54.2,89,69,49,29.85,29.70,5,1,13,0.00
2013-4-9,78.7,70.4,64.0,63.2,60.1,57.3,79,70,59,29.86,29.78,6,1,12,0.00
2013-4-10,81.5,66.9,59.3,67.8,62.5,58.2,98,86,61,29.82,29.56,8,1,18,0.41
2013-4-11,59.5,45.1,39.9,59.0,41.1,32.3,98,86,74,29.77,29.64,5,1,10,0.02
2013-4-12,44.5,40.7,35.3,35.1,32.6,30.4,83,73,64,30.04,29.75,5,1,12,0.00
2013-4-13,63.2,50.2,35.2,44.0,35.9,31.4,87,61,38,30.10,29.90,3,1,9,0.00
2013-4-14,79.7,64.4,47.9,54.8,47.6,42.2,81,57,29,29.90,29.58,7,2,20,0.00
2013-4-15,69.2,61.0,52.3,61.7,56.2,49.9,97,85,71,29.95,29.71,5,1,10,0.19
2013-4-16,52.3,46.4,44.0,50.3,45.4,43.2,98,96,89,30.15,29.90,3,1,8,0.15
2013-4-17,85.0,64.6,47.6,69.0,57.4,46.0,99,80,52,30.13,29.66,5,1,12,0.00
2013-4-18,74.8,58.8,40.3,66.9,54.9,34.0,99,87,72,29.78,29.54,7,1,22,1.04
2013-4-19,53.1,43.3,37.3,33.6,29.4,25.5,78,60,36,30.09,29.77,8,2,14,0.00
2013-4-20,58.9,46.7,32.1,32.7,29.3,27.2,88,53,33,30.34,30.09,3,0,7,0.00
2013-4-21,63.0,52.5,42.4,42.3,37.2,31.5,71,57,42,30.41,30.24,5,1,9,0.00
2013-4-22,73.1,60.0,42.9,46.7,40.7,36.2,81,52,32,30.27,29.96,5,1,12,0.00
2013-4-23,61.2,50.8,38.9,55.8,47.0,38.1,97,88,58,30.04,29.88,2,0,7,0.39
2013-4-24,56.9,44.5,36.6,40.2,34.8,28.9,97,73,36,30.27,30.01,2,1,7,0.01
2013-4-25,67.1,53.1,39.3,38.7,33.7,28.9,74,50,28,30.36,30.25,3,0,10,0.00
2013-4-26,59.4,52.5,46.3,49.1,44.7,38.0,89,75,59,30.38,30.26,3,0,9,0.00
2013-4-27,52.8,50.3,48.3,52.3,49.2,46.1,98,96,88,30.29,29.98,2,0,6,0.25
2013-4-28,56.9,54.3,48.6,52.6,51.2,47.5,99,89,82,29.98,29.91,1,0,4,0.00
2013-4-29,82.8,64.4,45.6,61.0,54.3,45.1,99,74,39,29.94,29.76,3,1,9,0.00
2013-4-30,88.3,74.4,60.5,61.1,56.3,48.9,90,58,26,29.92,29.78,3,1,10,0.00
2013-5-1,85.2,71.9,56.1,60.3,56.6,53.2,95,62,36,30.06,29.92,2,0,8,0.00
2013-5-2,74.8,60.7,42.8,60.9,54.0,41.7,96,80,50,30.16,30.04,2,0,5,0.25
2013-5-3,42.8,40.3,38.4,41.7,39.6,37.6,98,98,96,30.09,29.84,1,0,4,1.07
2013-5-4,50.7,43.8,38.4,44.1,40.5,37.9,99,89,68,30.02,29.85,2,0,5,0.01
2013-5-5,58.6,51.2,42.6,58.3,50.5,41.4,99,97,94,30.01,29.90,0,0,3,0.03
2013-5-6,68.5,59.9,52.0,57.8,54.4,51.5,100,84,60,29.99,29.92,1,0,6,0.01
2013-5-7,79.2,67.4,58.2,59.2,55.4,52.3,90,68,42,30.03,29.96,2,0,5,0.00
2013-5-8,82.6,68.5,55.5,61.3,56.0,50.4,95,68,33,30.03,29.95,2,0,5,0.00
2013-5-9,75.1,67.0,61.8,65.1,60.8,58.8,95,81,59,29.97,29.83,2,0,8,0.01
2013-5-10,65.8,61.1,55.3,60.7,57.6,51.8,96,88,77,29.99,29.82,0,0,3,0.01
2013-5-11,71.6,59.2,49.2,57.0,46.6,35.9,97,67,33,30.16,29.99,2,0,5,0.00
2013-5-12,64.4,53.1,41.9,40.0,33.9,28.0,78,51,28,30.24,30.15,1,0,5,0.00
2013-5-13,73.1,58.3,40.4,48.0,40.2,34.3,91,56,30,30.24,30.02,3,0,5,0.00
2013-5-14,90.9,75.6,58.0,57.3,52.3,46.9,78,48,26,30.02,29.79,3,1,9,0.00
2013-5-15,88.6,78.6,68.4,65.2,58.8,50.7,72,51,37,29.92,29.78,5,1,12,0.00
2013-5-16,78.3,71.4,64.0,70.6,63.5,56.8,97,77,57,29.92,29.83,2,0,7,0.16
2013-5-17,73.7,68.5,63.3,68.2,63.9,59.7,94,86,77,29.94,29.89,1,0,4,0.00
2013-5-18,79.8,71.0,62.8,67.7,65.3,61.6,99,84,64,29.99,29.85,2,0,5,0.00
2013-5-19,88.8,77.9,68.2,74.8,68.5,64.0,93,75,51,29.88,29.66,2,0,8,0.00
2013-5-20,77.5,70.7,62.2,70.7,66.3,60.9,99,87,69,29.86,29.67,3,0,12,0.57
2013-5-21,77.2,67.8,61.8,67.7,63.5,61.2,99,87,67,29.78,29.67,2,0,5,0.06
2013-5-22,73.8,66.8,61.8,62.3,59.4,55.6,96,78,59,29.86,29.65,3,0,8,0.00
2013-5-23,64.4,60.7,56.0,60.8,55.9,51.7,95,84,73,30.21,29.86,0,0,3,0.00
2013-5-24,68.6,58.2,48.8,53.0,44.2,37.0,95,64,33,30.40,30.22,3,0,6,0.00
2013-5-25,65.8,59.2,49.7,60.2,52.1,43.6,94,78,58,30.33,30.11,1,0,5,0.06
2013-5-26,80.4,69.2,57.7,71.3,62.2,53.6,87,79,65,30.17,29.97,2,0,6,0.00
2013-5-27,80.5,70.5,64.1,70.6,65.2,61.8,97,84,70,30.00,29.71,2,0,9,0.32
2013-5-28,81.7,73.2,65.4,72.1,67.6,64.5,98,83,68,29.87,29.77,1,0,7,0.02
2013-5-29,84.6,76.7,67.3,69.2,65.8,62.1,91,70,53,29.93,29.77,2,0,8,0.00
2013-5-30,81.8,74.2,64.5,73.0,67.6,63.1,97,80,67,29.88,29.76,2,0,7,0.30
2013-5-31,77.0,69.1,63.3,72.8,66.8,62.5,99,93,83,29.86,29.70,2,0,8,1.15
2013-6-1,75.3,67.1,63.6,69.0,64.0,58.5,99,90,72,29.88,29.69,2,0,7,0.18
2013-6-2,65.0,62.5,58.8,60.6,58.5,55.0,90,87,83,30.02,29.88,0,0,2,0.00
2013-6-3,71.8,62.6,56.8,56.2,53.4,50.4,89,73,52,30.09,29.97,1,0,4,0.00
2013-6-4,73.5,64.1,54.0,61.4,56.6,51.4,93,77,61,30.07,29.98,1,0,5,0.00
2013-6-5,78.4,67.1,59.4,65.6,61.4,57.4,97,83,56,30.00,29.84,0,0,3,0.05
2013-6-6,74.9,67.0,61.3,66.3,61.5,56.3,99,84,63,29.86,29.81,0,0,3,0.00
2013-6-7,72.7,65.2,58.5,62.2,58.9,55.7,93,81,67,29.91,29.85,0,0,2,0.00
2013-6-8,77.5,68.1,57.0,60.5,57.7,55.0,96,71,50,29.96,29.88,1,0,4,0.00
2013-6-9,75.7,65.7,62.5,66.8,61.7,58.4,97,87,69,29.92,29.78,3,0,7,0.07
2013-6-10,77.2,68.3,61.7,66.8,63.8,60.8,97,86,69,29.90,29.76,1,0,3,0.01
2013-6-11,88.2,75.4,62.0,75.3,69.0,60.7,98,82,59,29.95,29.83,1,0,5,0.01
2013-6-12,92.2,83.1,71.1,76.0,72.1,68.2,93,71,54,29.93,29.71,5,1,12,0.00
2013-6-13,83.0,74.7,68.6,72.1,65.9,61.8,87,74,60,29.97,29.73,1,0,4,0.00
2013-6-14,82.1,72.4,62.9,67.1,62.3,59.3,93,72,53,30.07,29.92,2,0,6,0.00
2013-6-15,85.8,74.1,66.7,71.8,66.4,61.5,97,78,58,30.08,29.91,2,0,5,0.30
2013-6-16,82.5,72.6,67.1,75.9,70.3,66.2,100,93,75,30.01,29.89,2,0,3,0.40
2013-6-17,80.9,70.0,64.6,77.0,68.7,64.0,100,96,73,29.93,29.84,1,0,5,0.54
2013-6-18,85.6,72.2,62.0,74.2,66.3,61.7,100,84,55,29.95,29.89,1,0,2,0.00
2013-6-19,82.2,73.2,64.2,68.7,65.4,62.2,95,78,58,30.04,29.95,0,0,3,0.00
2013-6-20,87.3,77.4,67.2,73.9,68.6,64.3,93,76,56,30.09,30.01,1,0,5,0.00
2013-6-21,89.0,80.1,70.6,76.9,72.1,68.2,93,77,64,30.07,29.96,1,0,5,0.00
2013-6-22,78.5,76.3,75.3,71.1,70.0,68.9,83,81,78,30.03,29.97,0,0,1,0.00
2013-6-23,76.0,68.8,67.0,69.5,67.5,66.4,98,96,79,30.02,29.94,2,0,4,0.77
2013-6-24,82.2,71.2,66.6,75.4,69.3,66.0,100,94,80,30.04,29.90,0,0,2,0.00
2013-6-25,90.4,81.7,73.8,77.3,73.5,70.1,90,77,61,29.94,29.75,2,0,5,0.17
2013-6-26,90.2,78.3,72.9,78.7,74.3,70.8,99,88,66,29.83,29.69,3,0,6,0.38
2013-6-27,88.9,79.4,72.4,77.3,72.7,68.3,99,81,61,29.87,29.74,0,0,2,0.00
2013-6-28,77.1,75.1,73.3,73.5,67.7,59.9,91,79,62,29.83,29.68,1,0,1,0.18
2013-6-29,81.0,72.4,66.7,67.2,63.2,60.0,89,73,53,29.72,29.63,1,0,4,0.00
2013-6-30,73.4,67.8,64.6,68.8,64.2,61.5,98,88,75,29.90,29.72,1,0,4,0.07
2013-7-1,77.6,68.2,59.8,64.9,60.4,56.2,98,78,55,29.96,29.89,1,0,3,0.00
2013-7-2,68.3,63.6,61.1,61.8,59.9,56.5,97,88,66,30.03,29.93,0,0,3,0.21
2013-7-3,79.8,69.8,61.3,66.5,62.2,59.6,96,78,55,30.08,29.99,1,0,3,0.00
2013-7-4,82.7,72.7,62.7,67.1,62.8,60.1,94,73,51,30.07,29.98,1,0,5,0.00
2013-7-5,81.4,73.8,64.5,69.3,66.3,62.8,97,78,61,30.05,29.97,1,0,4,0.00
2013-7-6,86.3,73.5,67.2,70.8,67.3,62.1,98,82,53,30.02,29.94,1,0,6,0.00
2013-7-7,89.4,77.6,67.0,73.1,69.1,64.4,94,77,53,30.02,29.95,1,0,4,0.00
2013-7-8,90.3,79.9,72.6,76.5,71.8,68.0,87,77,59,30.06,29.97,1,0,3,0.00
2013-7-9,91.5,82.9,75.1,77.7,74.3,70.9,88,76,60,30.02,29.89,2,0,4,0.00
2013-7-10,83.4,77.2,70.6,78.7,73.3,68.5,96,88,80,29.98,29.86,2,0,5,0.11
2013-7-11,83.9,74.3,67.4,68.7,64.9,61.2,94,74,52,30.03,29.96,1,0,4,0.00
2013-7-12,84.5,72.8,63.6,63.3,61.2,57.6,92,69,42,30.10,30.01,1,0,5,0.00
2013-7-13,82.8,73.4,62.3,65.6,62.1,59.1,93,69,48,30.07,29.99,2,0,5,0.00
2013-7-14,85.9,76.5,66.3,71.4,67.3,63.3,91,74,57,30.12,30.02,2,0,5,0.00
2013-7-15,87.6,78.4,72.4,76.7,72.9,70.3,95,84,62,30.20,30.10,1,0,6,0.01
2013-7-16,89.2,80.9,73.2,74.9,73.2,70.8,97,79,58,30.26,30.18,1,0,3,0.00
2013-7-17,90.6,81.8,73.5,78.1,74.0,71.3,95,78,61,30.29,30.16,0,0,2,0.00
2013-7-18,92.9,83.6,74.3,75.9,74.0,71.8,94,74,53,30.18,29.99,1,0,3,0.00
2013-7-19,93.9,82.8,75.1,77.5,73.3,70.6,89,74,51,29.99,29.84,1,0,3,0.00
2013-7-20,89.3,80.1,74.2,76.5,72.1,68.9,90,77,57,29.88,29.78,1,0,5,0.00
2013-7-21,79.7,75.5,71.6,73.1,71.0,69.3,93,86,76,29.90,29.80,0,0,2,0.00
2013-7-22,90.2,78.8,69.9,75.5,72.2,68.6,99,82,57,29.84,29.74,1,0,3,0.00
2013-7-23,90.1,80.6,73.4,76.6,71.8,65.8,89,75,56,29.86,29.70,1,0,2,0.00
2013-7-24,79.6,72.5,66.3,65.9,60.7,56.3,86,68,48,30.01,29.87,1,0,4,0.00
2013-7-25,81.2,72.8,61.2,63.2,60.4,57.7,91,67,48,30.10,30.01,1,0,3,0.00
2013-7-26,72.1,69.4,66.7,69.6,64.8,59.2,97,86,69,30.05,29.93,1,0,4,0.11
2013-7-27,75.1,67.0,60.5,67.6,59.9,54.7,98,80,54,30.00,29.94,0,0,5,0.00
2013-7-28,79.4,67.3,55.1,60.2,56.0,52.9,93,70,43,30.04,29.98,1,0,3,0.00
2013-7-29,72.4,67.3,59.2,66.6,62.9,57.4,97,86,75,30.14,30.04,0,0,2,0.00
2013-7-30,73.3,69.3,64.6,71.5,67.7,62.5,99,95,79,30.09,29.97,1,0,3,0.39
2013-7-31,79.0,72.3,67.4,74.6,70.4,65.7,100,94,78,30.03,29.97,0,0,2,0.01
2013-8-1,83.4,72.8,65.0,71.6,66.4,63.0,97,82,51,30.07,29.96,1,0,3,0.00
2013-8-2,79.9,72.6,67.9,72.2,68.5,63.4,98,87,69,29.97,29.88,1,0,4,0.08
2013-8-3,83.2,74.0,69.6,74.3,70.3,66.0,100,89,67,30.09,29.90,0,0,2,0.00
2013-8-4,77.4,71.4,64.4,65.9,63.3,59.8,96,77,57,30.15,30.05,1,0,3,0.00
2013-8-5,72.7,70.2,67.4,69.4,65.9,61.6,96,86,76,30.07,29.85,1,0,3,0.04
2013-8-6,85.8,76.7,70.3,73.6,71.4,69.4,99,85,63,29.90,29.81,1,0,3,0.00
2013-8-7,87.0,77.9,71.1,73.5,71.7,68.7,96,82,60,29.89,29.78,2,0,5,0.00
2013-8-8,77.3,73.8,71.9,75.2,72.1,70.1,99,94,90,29.94,29.85,1,0,4,0.11
2013-8-9,77.6,73.0,69.3,73.3,70.6,68.2,99,93,79,30.03,29.92,1,0,4,0.00
2013-8-10,82.4,77.5,68.6,70.4,64.8,61.9,84,66,54,30.11,30.04,0,0,2,0.01
2013-8-11,84.9,73.3,61.7,65.6,62.0,58.2,95,70,42,30.12,30.01,2,0,4,0.00
2013-8-12,77.3,72.7,69.4,74.5,69.0,62.9,98,88,71,30.05,29.89,0,0,1,0.08
2013-8-13,77.5,70.6,65.3,69.9,65.5,56.6,98,85,65,30.10,29.93,0,0,3,0.00
2013-8-14,73.7,65.3,56.3,57.5,54.4,51.6,93,69,48,30.19,30.10,1,0,5,0.00
2013-8-15,75.7,65.3,57.3,57.9,55.6,53.6,93,72,50,30.15,30.05,1,0,3,0.00
2013-8-16,74.7,66.7,58.0,60.4,57.4,55.1,95,74,52,30.14,30.08,2,0,5,0.02
2013-8-17,79.6,69.3,59.3,64.2,60.7,57.2,94,76,55,30.16,30.08,2,0,5,0.00
2013-8-18,80.9,71.5,63.7,66.1,63.3,61.1,92,77,57,30.16,30.05,1,0,4,0.00
2013-8-19,85.2,74.1,63.7,68.2,64.3,61.8,97,74,48,30.11,30.00,1,0,4,0.00
2013-8-20,85.6,75.6,65.9,70.0,66.9,64.1,95,76,54,30.09,30.00,1,0,2,0.00
2013-8-21,89.7,78.2,67.8,70.2,67.2,63.8,94,71,43,30.10,30.00,2,0,5,0.00
2013-8-22,80.6,75.3,71.8,73.1,70.0,67.4,88,84,77,30.05,29.99,0,0,3,0.00
2013-8-23,89.1,79.6,72.5,74.9,71.1,67.3,95,77,55,30.07,30.00,1,0,4,0.00
2013-8-24,90.2,79.4,68.1,71.2,67.4,63.3,95,69,41,30.17,30.06,1,0,5,0.00
2013-8-25,91.1,79.4,67.0,71.2,66.3,61.7,93,67,38,30.23,30.12,2,0,4,0.00
2013-8-26,93.3,82.4,73.5,75.4,71.9,66.8,95,73,43,30.18,30.03,2,0,5,0.00
2013-8-27,93.6,82.8,73.7,74.6,70.6,66.8,89,69,43,30.05,29.94,2,0,4,0.00
2013-8-28,93.8,82.8,71.4,71.2,68.2,62.7,90,64,37,30.01,29.94,0,0,0,0.00
2013-8-29,96.0,84.2,74.7,75.7,71.4,69.2,86,67,44,30.01,29.91,0,0,0,0.00
2013-8-30,98.8,86.2,75.2,76.4,71.8,69.1,85,65,39,29.93,29.79,0,0,0,0.00
2013-8-31,99.1,86.7,76.4,74.3,71.6,66.9,86,63,39,29.81,29.67,1,0,3,0.00
2013-9-1,90.0,82.1,74.8,76.0,72.7,69.2,92,74,58,29.80,29.72,2,0,5,0.00
2013-9-2,77.8,72.3,69.0,71.9,62.5,61.5,82,71,61,29.93,29.88,0,0,0,0.00
2013-9-3,82.2,71.5,61.4,61.8,58.1,52.6,88,65,38,30.06,29.93,1,0,3,0.00
2013-9-4,86.0,73.2,60.5,63.9,58.8,54.0,94,64,35,30.14,30.04,1,0,4,0.00
2013-9-5,87.8,74.8,62.3,65.7,61.2,56.7,89,65,39,30.17,30.09,1,0,4,0.00
2013-9-6,87.9,77.0,65.8,65.5,62.7,58.9,86,64,38,30.15,30.00,1,0,4,0.00
2013-9-7,92.7,78.9,64.3,68.8,64.1,60.0,93,64,35,30.02,29.88,2,0,7,0.00
2013-9-8,82.6,76.6,71.0,73.6,69.6,64.7,98,80,63,30.00,29.86,0,0,3,0.30
2013-9-9,96.2,83.6,73.6,73.7,70.5,66.7,92,68,39,29.94,29.87,1,0,6,0.00
2013-9-10,83.2,77.9,74.7,70.7,68.4,64.4,85,73,55,30.04,29.94,0,0,0,0.00
2013-9-11,89.2,79.2,73.5,70.0,67.3,64.9,77,68,50,30.05,29.99,1,0,5,0.00
2013-9-12,83.6,77.8,67.5,70.2,64.8,52.9,85,65,47,30.05,29.94,1,0,3,0.00
2013-9-13,74.0,65.8,57.9,58.2,52.3,46.9,83,63,42,30.11,30.04,1,0,5,0.00
2013-9-14,74.7,62.9,51.8,50.1,47.2,41.0,88,60,31,30.15,30.01,2,0,4,0.00
2013-9-15,80.9,68.1,56.4,65.7,55.3,45.8,92,65,44,30.08,29.97,1,0,4,0.01
2013-9-16,69.3,63.6,59.6,65.3,58.9,54.8,93,85,65,30.22,30.08,1,0,4,0.00
2013-9-17,71.2,64.6,59.6,65.1,59.8,54.7,94,85,75,30.22,30.05,1,0,4,0.01
2013-9-18,86.9,73.9,65.3,71.9,67.5,63.3,99,82,54,30.05,29.92,3,0,6,0.15
2013-9-19,89.5,79.8,72.8,74.1,70.6,68.3,90,75,51,29.96,29.82,2,0,6,0.00
2013-9-20,77.3,67.4,59.0,71.7,66.0,56.1,99,95,78,29.90,29.84,0,0,2,0.44
2013-9-21,69.8,60.9,53.4,56.2,53.5,52.0,96,78,54,29.97,29.88,1,0,4,0.00
2013-9-22,73.2,62.3,50.2,56.9,52.7,48.3,97,73,47,30.01,29.91,2,0,5,0.00
2013-9-23,74.7,64.1,52.4,57.1,52.6,50.1,95,69,45,30.01,29.89,2,0,8,0.00
2013-9-24,80.2,67.6,55.8,66.6,59.2,51.5,92,76,54,29.94,29.75,2,0,5,0.00
2013-9-25,79.3,70.8,65.7,67.7,65.3,62.7,97,84,63,29.84,29.76,1,0,3,0.00
2013-9-26,82.3,72.0,62.5,68.2,62.7,60.1,96,75,50,29.98,29.84,2,0,5,0.00
2013-9-27,82.0,72.0,61.7,67.0,61.0,58.7,93,70,47,30.07,29.96,2,0,5,0.00
2013-9-28,83.0,71.9,64.0,68.4,63.3,57.3,96,75,55,30.01,29.91,2,0,6,0.02
2013-9-29,73.0,64.9,57.7,67.0,55.9,51.9,95,75,49,30.05,29.95,2,0,4,0.00
2013-9-30,77.8,64.8,52.1,63.8,58.0,49.8,98,80,56,29.97,29.86,2,0,6,0.00
2013-10-1,81.6,70.9,63.9,69.4,66.4,62.4,97,86,65,30.00,29.92,2,0,4,0.00
2013-10-2,81.5,72.9,68.6,73.5,69.1,67.5,99,89,63,30.03,29.92,1,0,5,0.16
2013-10-3,84.3,75.2,67.1,71.2,68.6,65.3,96,81,61,29.94,29.83,2,0,7,0.01
2013-10-4,84.7,76.2,68.6,71.5,69.4,67.3,97,81,61,29.94,29.86,3,0,6,0.00
2013-10-5,76.1,67.9,54.1,70.7,65.2,52.7,97,92,72,29.92,29.81,2,0,4,0.13
2013-10-6,55.7,52.3,47.9,52.5,46.0,42.1,96,80,63,29.91,29.84,3,1,9,0.00
2013-10-7,68.6,57.4,50.6,52.8,49.2,46.9,89,75,51,30.13,29.91,1,0,4,0.00
2013-10-8,72.9,60.6,48.3,54.8,49.6,46.7,97,70,43,30.19,30.11,3,0,6,0.00
2013-10-9,72.9,61.1,48.0,55.8,51.1,45.9,95,72,49,30.17,30.07,2,0,5,0.00
2013-10-10,78.2,66.0,55.9,63.4,58.2,54.4,98,78,53,30.14,29.98,2,0,5,0.00
2013-10-11,79.0,66.4,56.4,62.3,57.7,54.7,96,76,45,30.01,29.87,2,0,7,0.00
2013-10-12,75.6,65.9,57.2,64.0,58.3,46.7,96,77,58,30.18,29.91,1,0,3,0.04
2013-10-13,71.1,59.9,49.6,47.2,43.9,38.7,81,58,31,30.37,30.18,1,0,5,0.00
2013-10-14,65.8,57.6,48.8,54.4,45.0,39.2,78,64,49,30.33,30.04,2,0,5,0.00
2013-10-15,65.8,61.8,54.5,64.0,59.2,51.3,98,92,79,30.05,29.88,1,0,3,0.27
2013-10-16,59.6,51.7,45.1,50.7,45.5,42.6,91,80,63,30.05,29.96,2,0,4,0.00
2013-10-17,63.6,53.1,47.1,49.4,45.2,41.4,95,77,45,30.00,29.92,3,0,5,0.01
2013-10-18,59.5,52.2,44.2,47.2,43.4,39.6,92,73,50,30.06,29.95,1,0,4,0.06
2013-10-19,56.9,46.9,39.8,42.5,39.7,36.8,97,78,49,30.04,29.95,2,0,7,0.16
2013-10-20,70.6,56.3,44.9,45.6,41.8,38.7,80,61,35,29.98,29.84,3,1,9,0.00
2013-10-21,55.2,50.3,41.0,46.0,42.2,35.2,86,74,56,30.06,29.91,1,0,3,0.00
2013-10-22,60.2,46.1,37.2,49.8,39.9,34.6,92,80,57,30.06,29.81,3,0,9,0.03
2013-10-23,49.4,42.8,36.3,38.4,35.4,31.8,92,76,53,30.15,30.01,1,0,5,0.00
2013-10-24,48.0,40.9,33.2,37.5,32.1,28.3,94,73,49,30.43,30.13,2,0,5,0.00
2013-10-25,55.1,41.0,28.9,33.8,29.7,26.3,93,67,35,30.53,30.22,2,0,5,0.00
2013-10-26,64.9,50.3,38.9,46.2,36.5,29.5,74,60,45,30.21,30.01,3,1,8,0.00
2013-10-27,60.0,46.1,34.4,37.1,32.6,28.4,87,62,33,30.14,30.02,2,0,4,0.01
2013-10-28,66.8,52.1,38.4,47.9,41.1,34.7,93,69,41,30.23,30.06,2,0,5,0.00
2013-10-29,57.8,52.9,48.2,57.2,48.8,40.5,98,87,66,30.24,30.05,2,0,5,0.12
2013-10-30,68.1,62.3,57.3,64.5,60.8,57.0,99,95,87,30.05,29.81,1,0,5,0.00
2013-10-31,64.7,59.8,47.4,64.1,58.8,46.3,99,97,90,29.80,29.37,3,0,7,0.46
2013-11-1,55.7,48.8,47.1,48.2,46.8,46.0,97,93,71,29.75,29.62,2,1,7,0.00
2013-11-2,52.5,47.0,41.7,41.1,39.6,38.0,88,76,62,30.20,30.10,1,0,2,0.00
2013-11-3,56.5,46.2,33.7,40.5,36.4,32.4,97,71,45,30.31,30.15,2,0,8,0.00
2013-11-4,59.6,52.3,45.7,47.6,42.5,36.6,77,69,58,30.23,30.10,2,0,8,0.00
2013-11-5,59.1,55.2,51.5,54.7,51.5,47.3,98,88,77,30.25,29.97,2,0,7,0.16
2013-11-6,57.7,48.5,38.3,57.1,46.9,36.2,98,94,88,30.28,29.89,2,0,8,0.06
2013-11-7,54.7,43.1,34.0,41.8,36.8,32.3,97,80,56,30.41,30.28,5,0,7,0.00
2013-11-8,57.9,46.2,31.4,37.3,33.2,28.1,95,64,34,30.38,30.09,2,1,8,0.00
2013-11-9,65.8,54.9,44.3,44.0,40.0,37.1,77,58,39,30.24,30.06,5,1,9,0.00
2013-11-10,54.5,47.3,41.0,38.3,34.3,30.1,78,62,40,30.43,30.24,1,0,3,0.00
2013-11-11,65.8,48.7,32.8,48.9,39.2,30.5,94,71,52,30.50,30.13,3,1,8,0.06
2013-11-12,35.6,29.7,23.2,30.7,21.7,18.3,92,73,51,30.79,30.51,2,0,8,0.00
2013-11-13,47.9,33.0,19.6,21.6,17.9,13.7,90,58,25,30.73,30.33,2,0,7,0.00
2013-11-14,59.0,44.0,28.8,27.9,21.4,16.6,72,44,20,30.33,30.05,5,1,12,0.00
2013-11-15,58.1,49.4,43.8,43.8,35.1,26.2,86,59,39,30.07,29.92,2,0,9,0.00
2013-11-16,64.3,58.0,48.0,60.8,53.9,44.0,96,86,80,29.93,29.61,5,1,13,0.01
2013-11-17,76.0,64.9,48.4,65.7,49.4,23.7,96,63,22,29.97,29.39,9,2,23,0.00
2013-11-18,58.4,47.5,36.3,40.6,34.2,28.5,86,63,33,30.31,29.98,3,0,8,0.00
2013-11-19,49.0,39.8,32.8,31.5,29.5,28.2,87,68,48,30.37,30.22,3,1,7,0.00
2013-11-20,49.4,40.8,35.0,42.4,34.9,28.9,94,80,69,30.23,30.04,5,1,10,0.10
2013-11-21,50.1,49.3,48.1,49.6,47.0,42.2,98,92,77,30.20,30.08,2,0,5,0.02
2013-11-22,49.8,38.1,33.3,49.3,36.6,31.2,98,94,90,30.55,30.20,3,1,7,0.01
2013-11-23,34.4,27.8,17.6,31.0,20.0,11.3,94,73,44,30.77,30.54,5,1,10,0.00
2013-11-24,29.7,22.1,12.9,16.1,11.4,5.6,91,66,37,30.80,30.49,2,0,6,0.00
2013-11-25,36.0,32.0,26.5,25.8,19.2,15.0,72,59,48,30.48,30.19,3,0,8,0.00
2013-11-26,41.3,32.7,23.2,30.8,24.1,13.8,86,71,61,30.29,30.11,5,1,12,0.00
2013-11-27,32.2,23.0,16.6,13.7,12.0,10.5,79,64,42,30.41,30.28,3,1,9,0.00
2013-11-28,47.7,32.1,19.4,26.5,19.8,12.5,77,62,43,30.53,30.29,6,1,12,0.00
2013-11-29,45.5,34.1,22.1,30.4,24.5,18.8,89,69,48,30.61,30.39,3,0,7,0.00
2013-11-30,60.3,43.1,28.7,40.5,34.3,26.7,96,73,48,30.39,30.10,2,0,8,0.00
2013-12-1,59.6,46.6,34.7,43.0,38.5,32.7,97,75,52,30.14,29.90,2,0,4,0.00
2013-12-2,58.0,46.4,38.8,47.0,41.0,34.9,94,82,66,29.90,29.68,2,0,7,0.00
2013-12-3,60.3,51.9,46.4,52.7,49.0,44.5,98,90,72,29.70,29.62,3,0,8,0.00
2013-12-4,67.7,54.5,39.2,56.8,49.4,33.6,99,84,62,29.87,29.51,5,1,10,0.00
2013-12-5,38.6,27.7,21.8,33.0,21.4,15.6,90,77,66,30.33,29.87,3,1,8,0.00
2013-12-6,22.9,19.9,13.7,19.0,12.9,6.5,88,74,65,30.64,30.30,2,1,7,0.00
2013-12-7,23.0,17.3,9.5,12.4,8.8,5.2,83,69,57,30.76,30.51,3,0,8,0.00
2013-12-8,27.2,23.5,19.7,25.4,20.8,12.2,95,90,66,30.51,30.06,2,0,8,0.00
2013-12-9,27.6,23.8,20.8,26.0,17.9,14.7,94,78,68,30.37,30.14,2,0,7,0.00
2013-12-10,36.2,25.6,15.1,19.9,15.3,10.6,83,66,50,30.36,30.29,6,1,13,0.03
2013-12-11,33.9,25.0,11.4,24.1,15.6,2.2,84,68,56,30.69,30.33,5,1,9,0.01
2013-12-12,38.8,23.5,8.8,18.0,11.4,2.6,83,61,41,30.69,30.31,5,1,7,0.00
2013-12-13,34.6,31.3,24.7,32.9,25.6,17.3,97,80,61,30.31,29.97,3,0,7,0.18
2013-12-14,33.7,30.9,26.3,33.2,29.9,24.6,98,96,93,30.18,29.86,3,1,7,0.02
2013-12-15,37.8,29.0,22.4,31.8,26.0,20.0,95,89,77,30.24,30.05,3,1,8,0.01
2013-12-16,41.8,31.8,25.1,33.9,28.8,24.0,97,89,71,30.17,30.01,2,0,5,0.07
2013-12-17,42.3,32.7,24.5,31.7,26.3,19.6,96,79,60,30.31,30.15,3,0,7,0.00
2013-12-18,53.3,39.2,25.3,38.1,27.6,19.2,87,65,41,30.31,29.95,3,1,10,0.01
2013-12-19,59.5,50.8,42.0,51.3,44.9,37.8,87,81,70,29.95,29.77,3,1,12,0.00
2013-12-20,69.2,52.2,35.6,59.2,48.0,34.0,94,86,68,29.87,29.69,7,1,13,0.04
2013-12-21,35.6,33.1,31.9,34.3,32.2,31.1,98,97,95,29.86,29.58,2,0,7,0.46
2013-12-22,34.1,31.5,26.7,32.8,30.3,24.6,98,95,91,30.31,29.68,3,1,8,0.05
2013-12-23,26.7,20.5,10.3,24.9,17.1,6.4,93,86,80,30.64,30.31,2,1,6,0.00
2013-12-24,24.1,15.3,4.7,13.6,6.4,1.4,88,69,46,30.68,30.39,3,1,12,0.00
2013-12-25,36.2,30.4,22.4,30.9,25.2,13.8,91,81,69,30.41,30.27,3,1,10,0.00
2013-12-26,50.5,36.5,25.3,32.2,26.3,22.6,97,70,34,30.40,30.27,5,1,10,0.00
2013-12-27,56.4,42.2,30.1,33.5,29.3,25.6,86,62,36,30.40,30.25,5,1,7,0.00
2013-12-28,61.0,46.6,35.2,33.4,30.3,26.1,76,55,27,30.26,29.92,5,1,9,0.00
2013-12-29,43.2,30.3,16.4,32.5,23.2,6.3,85,75,63,30.31,29.87,3,1,9,0.00
2013-12-30,30.2,20.1,9.2,15.1,6.6,1.5,77,56,40,30.40,30.26,3,0,8,0.00
2013-12-31,45.7,34.1,22.7,25.2,20.8,15.1,79,59,39,30.45,30.19,3,1,8,0.00
2014-1-1,48.2,35.2,24.2,31.3,26.9,21.9,91,73,50,30.19,30.03,3,0,6,0.00
2014-1-2,24.0,17.2,7.7,21.8,12.2,4.3,91,81,64,30.54,30.10,3,1,9,0.00